Tracking 21473 objects as of 19-Sep-2020
HD Live streaming from Space Station
objects crossing your sky now

CZ-3A R/B

Track CZ-3A R/B now!


NORAD ID: 40368
Int'l Code: 2014-090B
Perigee: 338.6 km
Apogee: 36,870.0 km
Inclination: 24.8 °
Period: 654.7 minutes
Semi major axis: 24975 km
RCS: Unknown
Launch date: December 31, 2014
Source: People's Republic of China (PRC)
Launch site: Xichang Space Center, China (XSC)

Note: This is a ROCKET BODY
aabbcc
Your satellite tracking list
Your tracking list is empty




NASA's NSSDC Master Catalog

Two Line Element Set (TLE):
1 40368U 14090B   20262.38488057 -.00000039 +00000-0 -11069-4 0  9995
2 40368 024.8057 079.9433 7313506 017.2404 358.2269 02.19956345045645
Source of the keplerian elements: AFSPC